Погода в Ноглики

Погода в Ноглики : погода сейчас, прогноз погоды и архив. Всё, что Вы хотите узнать о погоде в Ноглики!

Хотите узнать прогноз погоды в Ноглики? Тогда Вам сюда: Погода в Ноглики

Поиск расширенной информации на нашем сайте:

Другие новости

Новости СМИ2

Главная страница сайта

Новости сайта

02.10.2013

Напоминаем, что на нашем новом сайте вы можете получить высокодетализированные прогнозы погоды по пунктам России, СНГ и мира (включающие важные для авиации метеовеличины, такие как направление и скорость ветра, видимость, явления погоды, количество и форма облачности, нижняя и верхняя граница облачности), а также ознакомиться с разнообразными материалами по авиационной метеорологии и подборкой полезных ссылок на эту тему.

Сайт Метеоцентр.Азия посвящён разработке технологий оптимизации авиаметеорологического обслуживания, включая проектирование и перспективное создание нескольких автоматизированных авиаметеорологических систем:
- система выпуска высокодетальных прогностических карт явлений погоды для нижнего воздушного пространства по России и ближнему зарубежью;
- система верификации прогнозов TAF (выпускаемых синоптиками официальных АМСГ РФ и ближнего зарубежья) и AUTOTAF (выпускаемых сайтом Метеоцентр.Азия) - выявление ошибок, онлайн-сопоставление с фактической погодой METAR, автоматическое внесение коррективов в прогнозы при резком отклонении фактической погоды от прогноза, подсчёт оправдываемости прогнозов по элементам и в целом;
- система обработки, анализа и отображения авиаметеорологической информации для применения провайдерами метеорологической информации.

Рекомендуем: подбор тура пегас тур

Погода в Ноглики - сегодня

Время (UTC), дата Ветер
(°,м/с) 
Видим.   Явления Облачность Т
(°С)
Тd
(°С)
f(%) Тe
(°С)
Pmin
(гПа)
dP
(гПа)
Po
(мм)
O2
(г/м3)
Тmin Tmax R s Состояние
почвы
15 24.05.17 100 (В) 2-4{06}  0200 м  слаб. морось{туман}  ?/?  
+1.1 +1.1 100 1015.5  0.7  758  304           
18 24.05.17 090 (В) 1-3{04}  0200 м  слаб. морось{туман}  ?/?  
+1.2 +1.2 100 +2  1015.8  0.3  758  304           
21 24.05.17 110 (В) 3-4{05}  1000 м  в посл. час туман{морось}  10/10 100 м 
[St]
+1.2 +1.2 100 1016.5  0.7  759  304  +0.5    0.4    влажная 
00 25.05.17 100 (В) 2-4{05}  2000 м  дымка{морось, туман}  10/10 120 м 
[St]
+2.2 +1.9 98 +2  1016.6  0.1  759  303           
03 25.05.17 120 (ЮВ) 3-4{05}  20000 м    10/10 180 м 
[St]
+4.6 +2.6 87 +3  1016  -0.5  758  300           
06 25.05.17 110 (В) 3-6{06}  2000 м  дымка  10/10 150 м 
[St]
+3.6 +2.6 93 +2  1015.2  -0.8  758  301           
09 25.05.17 150 (ЮВ) 4-6{07}  2000 м  дымка  10/10 120 м 
[St]
+2.8 +2.5 98 +1  1014.7  -0.5  757  302    +5.4       
12 25.05.17 150 (ЮВ) 3-5{07}  10 км    6/6 200 м 
[St]
+2.4 +1.6 94 +1  1014.6  -0.1  757  302           
15 25.05.17 170 (Ю) 2-4{05}  10 км    10/10 150 м 
[St]
+2.8 +2.3 97 +2  1013.5  -1.1  757  301           
18 25.05.17 160 (Ю) 1-2{05}  0500 м  туман  ?/?  
+1.8 +1.8 100 +3  1012.8  -0.7  756  302           
21 25.05.17 160 (Ю) 2-3{04}  0200 м  туман  ?/?  
+2.1 +2.1 100 +1  1012.2  -0.6  756  302  +1.8        сухая 
00 26.05.17 320 (СЗ) 5-8{08}  20000 м  {туман}  3/3 300 м 
[Sc]
+10.6 +3.8 63 +9  1010.3  -1.8  754  292           
03 26.05.17 140 (ЮВ) 5-8{08}  20000 м    ясно 
+13 +3.4 52 +12  1008.3  -1.9  753  289           
06 26.05.17 150 (ЮВ) 4-6{08}  20000 м    1/0 верхняя 
[Ci fib]
+15.4 +3.7 46 +15  1006.9  -1.4  752  286           
09 26.05.17 250 (З) 4-7{09}  20000 м    ясно 
+17.3 +1.7 35 +18  1006.7  -0.2  752  285    +19.8       
12 26.05.17 260 (З) 3-5{07}  20000 м    3/0 верхняя 
[Ci sp]
+11.2 +1.8 52 +11  1007.9  1.1  752  291           
15 26.05.17 240 (ЮЗ) 6-9{10}  10 км    ясно 
+11.7 +2.5 53 +10  1007.2  -0.7  752  290           
21 26.05.17 260 (З) 6-8{10}  20000 м    1/0 верхняя 
[Ci fib]
+14 +0.9 41 +13  1007.8  0.9  752  288  +10        сухая 
15 27.05.17 240 (ЮЗ) 4-9{09}  10 км    ясно 
+13.7 +0.5 40 +13  1006.3  -0.2  751  288           
21 27.05.17 320 (СЗ) 4-7{07}  10 км    5/0 верхняя 
[Ci sp]
+13.6 +0 39 +13  1005.1  -0.1  750  288  +7.8        сухая 
09 28.05.17 130 (ЮВ) 4-5{07}  20000 м    8/0 верхняя 
[Ci fib]
+13.7 +3.2 49 +13  999.7  -0.7  746  286    +26.2       
15 28.05.17 тихо () -1{04}  10 км    ясно 
+4.6 +3.1 90 +5  999.8  -0.1  746  295           
21 28.05.17 220 (ЮЗ) 2-3{04}  20000 м    ясно 
+7.8 +4.1 77 +8  999.2  -0.5  746  292  +1.4        сухая 
09 29.05.17 280 (З) 2-4{07}  20000 м  слаб. ливневой дождь  9/5 600 м кучево-дожд., верхняя 
[Cb cap|Ci sp]
+14.5 +8.1 65 +15  998.8  1.1  746  284    +19.4  0.0     
15 29.05.17 240 (ЮЗ) 4-7{07}  10 км    ясно 
+7.4 +5.4 87 +6  1001.9  0.4  748  293           
Время (UTC), дата Ветер
(°,м/с) 
Видим.   Явления Облачность Т
(°С)
Тd
(°С)
f(%) Тe
(°С)
Pmin
(гПа)
dP
(гПа)
Po
(мм)
O2
(г/м3)
Тmin Tmax R s Состояние
почвы

Для получения пояснительной информации подведите курсор к названию столбца.

ПОГОДА в Ноглики - архив

Всё, что Вы хотите узнать о погоде в Ноглики - удобно и подробно!

Выберите нужную дату (начиная с 1 января 2015* года) и нажмите кнопку "Найти".
Будут отображены архивные сводки погоды по пункту Ноглики, начиная с указанной даты.


Отображать данные в формате CSV (для использования в таблицах Excel)


Внимание! Наш архив погоды предназначен исключительно для личного некоммерческого использования в познавательных целях. Если Вам необходимы официальные справки о состоянии погоды (для производственных, юридических, коммерческих и т.п. целей), обращайтесь в органы Росгидромета.

*Примечание: данная дата относится к архиву по метеостанциям СССР (Россия, СНГ, Балтия).
Архив по метеостанциям Зарубежной Европы и Азии (кроме Китая) хранится 10 дней, по другим регионам земного шара (Китай, Африка, Америка, Австралия, Океания) - 1 день.

Ноглики - район местоположения метеостанции


Название, широта, долгота, высота метеостанции:
Ноглики 51.9°ш. 143.1°д. 34 м над ур. моря [Российская Федерация]

Дополнительная информация

В oтличие oт бoльшинства пoгoдных сайтoв мы публикуем пoдрoбную метеoинфoрмацию в детальнoм прoфессиoнальнoм фoрмате.

Характеристики температуры и влажнoсти вoздуха измеряются на высoте 2 м в тени вдали oт зданий и деревьев.
Скoрoсть ветра измеряется на высoте 10 м (на урoвне рoста челoвека скoрoсть ветра ниже в 1.5-2 раза). Если метеoстанция нахoдится в гoрoде или в лесу, тo скoрoсть ветра занижена на 2-4 м/с пo сравнению с oткрытым местoм. Скoрoсть ветра над акватoриями крупных рек и oзёр, а также на вершинах хoлмoв на 2-5 м/с выше, чем в oбычных услoвиях.
Атмoсфернoе давление в разных тoчках местнoсти мoжет значительнo oтличаться oт давления на метеoстанции, в зависимoсти oт услoвий рельефа (при пoдъёме на 10 м давление пoнижается примернo на 1 мм рт.ст.).